Location: Pinon Hills
(34.4429°N, 117.6403°W)
Time: 08:09:54
(UTC-07:00)

Amateur Radio Satellites - All Passes

Search period start: 30 July 2014 07:39
Search period end: 31 July 2014 07:39
Location: Pinon Hills, 34.4429°N, 117.6403°W

Satellite Date Start Highest point End Downlink Frequencies (MHz)
Time Altitude Azimuth
Hamsat 30 Jul 07:57:17 07:59:58 16° 292° (WNW) 08:02:39 145.90 MHz
KITSAT 1 30 Jul 08:26:06 08:30:38 16° 320° (NW) 08:35:11 435.175 FM
JAS-2 30 Jul 08:27:10 08:31:11 20° 296° (WNW) 08:34:58 435.800 - 435.900 CW/SSB, 435.910 FM
Saudisat 1A 30 Jul 08:33:42 08:36:18 15° 312° (NW) 08:38:54 436.775 MHz
PANSAT 30 Jul 08:56:36 08:58:20 13° 201° (SSW) 09:00:03 not established
SO-67 30 Jul 09:01:59 09:03:32 13° 291° (WNW) 09:05:04 435.3500 MHz FM
Sapphire 30 Jul 09:26:28 09:31:24 34° 57° (ENE) 09:36:18 437.095 MHz 1200 baud AX-25 AFSK
Oscar 11 30 Jul 09:27:08 09:28:39 12° 92° (E) 09:30:10 145.825 FM, Beacon 2401.500 USB
HO-68 30 Jul 09:30:36 09:37:28 48° 101° (E) 09:44:17 435.675 MHz FM
PCSat 30 Jul 09:59:24 10:04:50 73° 63° (ENE) 10:10:14 145.825 MHz
UKube-1 30 Jul 10:17:12 10:21:34 82° 284° (WNW) 10:25:53 145.840 MHz, 145.915 MHz
Oscar 11 30 Jul 11:00:52 11:05:03 48° 286° (WNW) 11:09:13 145.825 FM, Beacon 2401.500 USB
Sapphire 30 Jul 11:10:08 11:14:38 27° 253° (WSW) 11:19:07 437.095 MHz 1200 baud AX-25 AFSK
HO-68 30 Jul 11:18:56 11:24:47 29° 296° (WNW) 11:30:39 435.675 MHz FM
FUNcube-1 30 Jul 11:26:26 11:30:36 71° 284° (WNW) 11:34:50 145.950 - 145.970 MHz USB
RS-15 30 Jul 11:31:26 11:39:19 23° 102° (ESE) 11:47:01 29.354 - 29.394 USB, Beacon 29.352 USB
PCSat 30 Jul 11:45:46 11:47:32 12° 258° (WSW) 11:49:18 145.825 MHz
SO-50 30 Jul 11:53:44 11:58:07 66° 117° (ESE) 12:02:36 436.795 FM
Oscar 19 30 Jul 12:18:57 12:20:45 12° 63° (ENE) 12:22:33 437.125 CW, 437.150 USB
Oscar 16 30 Jul 12:45:06 12:49:06 24° 68° (ENE) 12:53:08 437.025 USB, Beacon 2401.1428
ITAMSAT 1 30 Jul 13:10:02 13:13:30 18° 66° (ENE) 13:16:58 435.822 SSB
JAS-1B 30 Jul 13:20:23 13:27:32 27° 59° (ENE) 13:35:10 435.800 - 435.900 CW/SSB
Uribyol 2 30 Jul 13:27:56 13:32:21 29° 69° (ENE) 13:36:46 436.500 FM
AO-27 30 Jul 13:28:35 13:33:00 28° 69° (ENE) 13:37:24 436.795 MHz FM
SO-50 30 Jul 13:37:02 13:39:08 13° 314° (NW) 13:41:16 436.795 FM
RS-15 30 Jul 13:39:11 13:50:24 79° 299° (WNW) 14:01:23 29.354 - 29.394 USB, Beacon 29.352 USB
UOSAT-12 30 Jul 13:45:22 13:49:52 65° 116° (ESE) 13:54:30 437.025 FM, 437.400 FM
Oscar 19 30 Jul 13:54:21 13:59:25 71° 258° (WSW) 14:04:33 437.125 CW, 437.150 USB
AO-Echo 30 Jul 13:57:20 14:02:30 56° 74° (ENE) 14:07:43 ?
Gurwin Techsat 1B 30 Jul 14:00:46 14:04:51 23° 67° (ENE) 14:08:56 435.225 FM
KITSAT 1 30 Jul 14:23:21 14:30:26 32° 51° (NE) 14:37:28 435.175 FM
Oscar 16 30 Jul 14:23:38 14:28:14 34° 262° (W) 14:32:52 437.025 USB, Beacon 2401.1428
ITAMSAT 1 30 Jul 14:47:35 14:52:35 47° 260° (W) 14:57:36 435.822 SSB
Uribyol 2 30 Jul 15:07:18 15:11:43 28° 263° (W) 15:16:10 436.500 FM
AO-27 30 Jul 15:07:53 15:12:23 29° 263° (W) 15:16:54 436.795 MHz FM
JAS-1B 30 Jul 15:08:16 15:16:57 73° 258° (WSW) 15:26:47 435.800 - 435.900 CW/SSB
TMSAT-1 30 Jul 15:13:35 15:18:53 85° 76° (ENE) 15:24:13 436.925 FM
Saudisat 1A 30 Jul 15:23:10 15:26:05 17° 50° (NE) 15:28:59 436.775 MHz
UOSAT-12 30 Jul 15:27:59 15:30:28 14° 313° (NW) 15:32:58 437.025 FM, 437.400 FM
AO-7 30 Jul 15:30:36 15:38:13 41° 64° (ENE) 15:45:52 29.400 - 29.500 MHz
AO-Echo 30 Jul 15:38:35 15:41:32 15° 268° (W) 15:44:31 ?
Gurwin Techsat 1B 30 Jul 15:39:39 15:44:32 38° 262° (W) 15:49:28 435.225 FM
Uosat F 30 Jul 15:56:18 16:01:07 47° 72° (ENE) 16:05:57 435.120 FM
RS-15 30 Jul 15:56:43 16:04:44 22° 324° (NW) 16:12:44 29.354 - 29.394 USB, Beacon 29.352 USB
KITSAT 1 30 Jul 16:18:19 16:26:05 53° 249° (WSW) 16:33:49 435.175 FM
JAS-2 30 Jul 16:49:36 16:54:29 19° 63° (ENE) 16:59:10 435.800 - 435.900 CW/SSB, 435.910 FM
OPAL 30 Jul 16:57:31 17:02:37 78° 105° (ESE) 17:07:47 ?
Saudisat 1A 30 Jul 17:01:41 17:05:53 44° 245° (WSW) 17:10:02 436.775 MHz
JAS-1B 30 Jul 17:05:45 17:09:00 12° 276° (W) 17:12:23 435.800 - 435.900 CW/SSB
Hamsat 30 Jul 17:11:30 17:14:10 17° 69° (ENE) 17:16:51 145.90 MHz
AO-7 30 Jul 17:23:14 17:30:53 40° 260° (W) 17:38:36 29.400 - 29.500 MHz
Uosat F 30 Jul 17:37:01 17:40:05 16° 266° (W) 17:43:11 435.120 FM
RS-15 30 Jul 18:21:54 18:23:31 10° 2° (N) 18:25:08 29.354 - 29.394 USB, Beacon 29.352 USB
JAS-2 30 Jul 18:30:52 18:38:44 82° 257° (WSW) 18:46:08 435.800 - 435.900 CW/SSB, 435.910 FM
OPAL 30 Jul 18:39:19 18:40:50 11° 299° (WNW) 18:42:20 ?
Hamsat 30 Jul 18:46:07 18:49:51 32° 263° (W) 18:53:37 145.90 MHz
STRAND 1 30 Jul 19:23:51 19:28:53 59° 101° (E) 19:33:53 ?
SO-67 30 Jul 19:29:46 19:33:11 65° 260° (W) 19:36:39 435.3500 MHz FM
HO-68 30 Jul 19:56:20 20:01:58 26° 63° (ENE) 20:07:36 435.675 MHz FM
JAS-2 30 Jul 20:21:18 20:24:21 13° 270° (W) 20:27:21 435.800 - 435.900 CW/SSB, 435.910 FM
SO-50 30 Jul 20:29:04 20:32:59 25° 52° (NE) 20:36:56 436.795 FM
RS-15 30 Jul 20:33:36 20:42:05 24° 38° (NE) 20:50:42 29.354 - 29.394 USB, Beacon 29.352 USB
MaSat-1 30 Jul 20:46:08 20:50:02 85° 112° (ESE) 20:54:39 437.345 MHz
STRAND 1 30 Jul 21:04:54 21:07:31 14° 296° (WNW) 21:10:09 ?
UKube-1 30 Jul 21:09:05 21:13:20 53° 74° (ENE) 21:17:36 145.840 MHz, 145.915 MHz
ISS 30 Jul 21:23:07 21:25:05 15° 127° (SE) 21:27:04 145.800 FM
HO-68 30 Jul 21:42:14 21:49:12 54° 258° (WSW) 21:56:12 435.675 MHz FM
Oscar 11 30 Jul 21:52:01 21:56:19 82° 77° (ENE) 22:00:38 145.825 FM, Beacon 2401.500 USB
SO-50 30 Jul 22:09:16 22:13:34 34° 247° (WSW) 22:17:55 436.795 FM
UOSAT-12 30 Jul 22:18:59 22:22:43 23° 51° (NE) 22:26:24 437.025 FM, 437.400 FM
FUNcube-1 30 Jul 22:19:17 22:23:32 57° 75° (ENE) 22:27:41 145.950 - 145.970 MHz USB
RS-15 30 Jul 22:45:00 22:56:10 85° 62° (ENE) 23:07:46 29.354 - 29.394 USB, Beacon 29.352 USB
UKube-1 30 Jul 22:48:52 22:49:49 11° 268° (W) 22:50:45 145.840 MHz, 145.915 MHz
PCSat 30 Jul 22:56:53 22:59:56 15° 104° (ESE) 23:02:59 145.825 MHz
ISS 30 Jul 22:58:22 23:01:31 40° 321° (NW) 23:04:42 145.800 FM
UOSAT-12 30 Jul 23:58:37 00:02:56 36° 247° (WSW) 00:07:10 437.025 FM, 437.400 FM
Sapphire 31 Jul 00:04:15 00:09:35 65° 113° (ESE) 00:14:57 437.095 MHz 1200 baud AX-25 AFSK
PCSat 31 Jul 00:37:29 00:42:47 58° 298° (WNW) 00:48:08 145.825 MHz
RS-15 31 Jul 00:59:46 01:07:10 21° 259° (WSW) 01:14:48 29.354 - 29.394 USB, Beacon 29.352 USB
Oscar 16 31 Jul 01:02:51 01:03:42 10° 91° (E) 01:04:32 437.025 USB, Beacon 2401.1428
Uribyol 2 31 Jul 01:45:46 01:48:08 13° 92° (E) 01:50:30 436.500 FM
AO-27 31 Jul 01:46:48 01:49:05 13° 92° (E) 01:51:20 436.795 MHz FM
Sapphire 31 Jul 01:50:07 01:53:28 16° 310° (NW) 01:56:50 437.095 MHz 1200 baud AX-25 AFSK
AO-Echo 31 Jul 02:09:24 02:13:20 23° 95° (E) 02:17:08 ?
Oscar 19 31 Jul 02:09:34 02:14:39 55° 101° (E) 02:19:43 437.125 CW, 437.150 USB
Gurwin Techsat 1B 31 Jul 02:22:23 02:23:58 11° 91° (E) 02:25:32 435.225 FM
Oscar 16 31 Jul 02:38:19 02:43:29 73° 285° (WNW) 02:48:38 437.025 USB, Beacon 2401.1428
JAS-1B 31 Jul 03:00:01 03:08:44 51° 97° (E) 03:16:03 435.800 - 435.900 CW/SSB
ITAMSAT 1 31 Jul 03:03:54 03:09:06 84° 103° (ESE) 03:14:15 435.822 SSB
Uribyol 2 31 Jul 03:22:52 03:27:56 59° 286° (WNW) 03:32:59 436.500 FM
AO-27 31 Jul 03:23:50 03:28:56 61° 286° (WNW) 03:34:00 436.795 MHz FM
PANSAT 31 Jul 03:31:10 03:34:08 21° 165° (SSE) 03:37:06 not established
TMSAT-1 31 Jul 03:33:18 03:38:23 46° 99° (E) 03:43:25 436.925 FM
AO-7 31 Jul 03:38:39 03:42:42 14° 92° (E) 03:46:42 29.400 - 29.500 MHz
AO-Echo 31 Jul 03:47:42 03:52:06 31° 290° (WNW) 03:56:21 ?
Oscar 19 31 Jul 03:50:31 03:53:30 16° 295° (WNW) 03:56:29 437.125 CW, 437.150 USB
Gurwin Techsat 1B 31 Jul 03:59:04 04:04:22 71° 285° (WNW) 04:09:37 435.225 FM
Uosat F 31 Jul 04:08:36 04:12:09 19° 95° (E) 04:15:41 435.120 FM
OPAL 31 Jul 04:09:11 04:14:07 88° 255° (WSW) 04:19:06 ?
ITAMSAT 1 31 Jul 04:47:25 04:47:49 10° 298° (WNW) 04:48:14 435.822 SSB
KITSAT 1 31 Jul 04:47:51 04:54:52 34° 107° (ESE) 05:01:53 435.175 FM
JAS-1B 31 Jul 04:50:56 04:58:44 33° 298° (WNW) 05:05:34 435.800 - 435.900 CW/SSB
MaSat-1 31 Jul 05:09:58 05:12:00 12° 51° (NE) 05:14:00 437.345 MHz
PANSAT 31 Jul 05:10:24 05:13:55 33° 178° (S) 05:17:25 not established
TMSAT-1 31 Jul 05:14:16 05:17:54 19° 294° (WNW) 05:21:32 436.925 FM
AO-7 31 Jul 05:27:59 05:36:21 88° 107° (ESE) 05:44:39 29.400 - 29.500 MHz
ISS 31 Jul 05:29:50 05:33:03 41° 39° (NE) 05:36:14 145.800 FM
Uosat F 31 Jul 05:46:24 05:51:02 39° 289° (WNW) 05:55:38 435.120 FM
JAS-2 31 Jul 05:48:42 05:50:56 12° 89° (E) 05:53:07 435.800 - 435.900 CW/SSB, 435.910 FM
Hamsat 31 Jul 06:34:47 06:39:03 55° 100° (E) 06:43:18 145.90 MHz
STRAND 1 31 Jul 06:36:10 06:41:13 59° 74° (ENE) 06:46:16 ?
KITSAT 1 31 Jul 06:42:12 06:49:57 48° 304° (WNW) 06:57:44 435.175 FM
MaSat-1 31 Jul 06:44:48 06:50:05 86° 248° (WSW) 06:54:54 437.345 MHz
PANSAT 31 Jul 06:50:26 06:53:44 27° 190° (S) 06:57:02 not established
SO-67 31 Jul 06:59:26 07:00:19 11° 93° (E) 07:01:12 435.3500 MHz FM
Saudisat 1A 31 Jul 07:04:23 07:08:47 74° 300° (WNW) 07:13:13 436.775 MHz
ISS 31 Jul 07:07:30 07:09:29 15° 233° (SW) 07:11:27 145.800 FM
AO-7 31 Jul 07:22:53 07:28:01 18° 305° (NW) 07:33:10 29.400 - 29.500 MHz
